Tracking 25963 objects as of 12-Aug-2022
HD Live streaming from Space Station
objects crossing your sky now

OPS 8068

Track OPS 8068 now!
10-day predictions
OPS 8068 is classified as:


NORAD ID: 1580
Int'l Code: 1965-072A
Perigee: 639.0 km
Apogee: 973.8 km
Inclination: 98.3 °
Period: 100.9 minutes
Semi major axis: 7177 km
RCS: 0.631 m2 (medium)
Launch date: September 10, 1965
Source: United States (US)
Launch site: AIR FORCE WESTERN TEST RANGE (AFWTR)
aabbcc
Your satellite tracking list
Your tracking list is empty




NASA's NSSDC Master Catalog

Two Line Element Set (TLE):
1 01580U 65072A   22224.54948672  .00000141  00000-0  57869-4 0  9996
2 01580  98.3317  57.6269 0233200 236.3442 121.5302 14.27752662932501
Source of the keplerian elements: AFSPC